Location: *
(51.2167°N, 10.0667°E)
Time: 15:01:56
(UTC+00:00)

Cosmos 1743 - Pass Details

Date: 12 December 2019
Orbit: 511 x 527 km, 82.6° (Epoch: 27 January)

Event Time Altitude Azimuth Distance (km) Brightness Sun altitude
Rises 16:52:19 0° 354° (N) 2,661 6.2 -14.6°
Reaches altitude 10° 16:54:31 10° 360° (N) 1,771 5.2 -15.0°
Maximum altitude 16:58:17 47° 75° (ENE) 704 2.9 -15.5°
Drops below altitude 10° 17:02:02 10° 150° (SSE) 1,764 5.3 -16.1°
Sets 17:04:14 0° 157° (SSE) 2,650 6.2 -16.4°
